Phuket, Thailand

2:12 PM +07 on November 19, 2017 (GMT +0700)
Phuket International

Weather History for VTSP - April, 2014

Change the Weather History Date:

Wednesday, April 23, 2014

  Actual Average Record
Temperature  
Mean Temperature 84 °F -  
Max Temperature 91 °F 89 °F 98 °F (1997)
Min Temperature 76 °F 78 °F 73 °F (2015)
Cooling Degree Days 18    
Growing Degree Days 34 (Base 50)    
Moisture  
Dew Point 76 °F    
Average Humidity 73    
Maximum Humidity 89    
Minimum Humidity 55    
Precipitation  
Precipitation 0.08 in 0.40 in - ()
Sea Level Pressure  
Sea Level Pressure 29.82 in    
Wind  
Wind Speed 6 mph ()    
Max Wind Speed 16 mph    
Max Gust Speed -    
Visibility 5.7 miles    
Events Rain , Thunderstorm    
Averages and records for this station are not official NWS values.
T = Trace of Precipitation, MM = Missing Value Source: Averaged Metar Reports

Daily Weather History Graph

Daily Weather History Graph

Search for Another Location

Airport or City:

Trip Planner

Search our weather history database for the weather conditions in past years. The results will help you decide how hot, cold, wet, or windy it might be!

Date:

Astronomy

Apr. 23, 2014 Rise Set
Actual Time 6:14 AM +07 6:35 PM +07
Civil Twilight 5:53 AM +07 6:57 PM +07
Nautical Twilight 5:28 AM +07 7:22 PM +07
Astronomical Twilight 5:02 AM +07 7:47 PM +07
Moon 1:09 AM +07 (4/23) 1:20 PM +07 (4/23)
Length of Visible Light 13h 04m
Length of Day
12h 21m
Last Quarter, 40% of the Moon is Illuminated
Apr 23
Last Quarter
Apr 29
New
May 7
First Quarter
May 15
Full
May 21
Last Quarter

Hourly Weather History & Observations

Time (+07) Temp. Heat Index Dew Point Humidity Pressure Visibility Wind Dir Wind Speed Gust Speed Precip Events Conditions
12:00 AM 84.2 °F 94.1 °F 77.0 °F 79% 29.89 in 5.6 mi North 4.6 mph - N/A   Mostly Cloudy
12:30 AM 82.4 °F 90.9 °F 77.0 °F 84% 29.89 in 5.6 mi West 4.6 mph - N/A   Mostly Cloudy
1:00 AM 86 °F - 78 °F 72% 29.84 in 6 mi Calm Calm - -   Mist
1:00 AM 84.2 °F 94.1 °F 77.0 °F 79% 29.89 in 5.6 mi WNW 5.8 mph - N/A   Mostly Cloudy
2:00 AM 82.4 °F 89.5 °F 75.2 °F 79% 29.86 in 5.6 mi NNW 4.6 mph - N/A   Mostly Cloudy
2:30 AM 80.6 °F 86.2 °F 75.2 °F 84% 29.83 in 5.6 mi Calm Calm - N/A   Mostly Cloudy
3:30 AM 78.8 °F - 75.2 °F 89% 29.83 in 5.6 mi Calm Calm - N/A   Mostly Cloudy
4:00 AM 80 °F - 77 °F 87% 29.79 in 6 mi Calm Calm - -   Mist
4:00 AM 78.8 °F - 75.2 °F 89% 29.83 in 5.6 mi Variable 1.2 mph - N/A   Mostly Cloudy
6:00 AM 78.8 °F - 75.2 °F 89% 29.83 in 5.0 mi South 2.3 mph - N/A   Mostly Cloudy
6:30 AM 78.8 °F - 75.2 °F 89% 29.83 in 5.0 mi SE 1.2 mph - N/A   Mostly Cloudy
7:00 AM 80 °F - 77 °F 87% 29.82 in 6 mi Calm Calm - -   Scattered Clouds
7:00 AM 80.6 °F 87.1 °F 77.0 °F 89% 29.86 in 5.0 mi Calm Calm - N/A   Mostly Cloudy
7:30 AM 80.6 °F 87.1 °F 77.0 °F 89% 29.86 in 5.0 mi Variable 2.3 mph - N/A   Mostly Cloudy
8:30 AM 87.8 °F 97.6 °F 75.2 °F 66% 29.89 in 6.2 mi WNW 5.8 mph - N/A   Mostly Cloudy
9:00 AM 87.8 °F 97.6 °F 75.2 °F 66% 29.89 in 6.2 mi WNW 5.8 mph - N/A   Mostly Cloudy
9:30 AM 87.8 °F 97.6 °F 75.2 °F 66% 29.89 in 6.2 mi NNW 5.8 mph - N/A   Scattered Clouds
10:00 AM 89 °F - 76 °F 58% 29.84 in 6 mi WNW 5.8 mph - -   Scattered Clouds
10:00 AM 89.6 °F 99.8 °F 75.2 °F 62% 29.89 in 6.2 mi NW 5.8 mph - N/A   Scattered Clouds
10:30 AM 89.6 °F 99.8 °F 75.2 °F 62% 29.86 in 6.2 mi WNW 9.2 mph - N/A   Scattered Clouds
11:00 AM 91.4 °F 100.1 °F 73.4 °F 55% 29.86 in 6.2 mi West 11.5 mph - N/A   Scattered Clouds
11:30 AM 91.4 °F 102.5 °F 75.2 °F 59% 29.86 in 6.2 mi West 11.5 mph - N/A   Scattered Clouds
12:00 PM 91.4 °F 102.5 °F 75.2 °F 59% 29.83 in 6.2 mi West 11.5 mph - N/A   Scattered Clouds
12:30 PM 91.4 °F 102.5 °F 75.2 °F 59% 29.83 in 6.2 mi West 15.0 mph - N/A   Scattered Clouds
1:00 PM 90 °F - 77 °F 57% 29.80 in 6 mi WNW 5.8 mph - -   Scattered Clouds
1:00 PM 91.4 °F 102.5 °F 75.2 °F 59% 29.80 in 6.2 mi WNW 12.7 mph - N/A   Scattered Clouds
1:30 PM 91.4 °F 102.5 °F 75.2 °F 59% 29.80 in 6.2 mi West 15.0 mph - N/A   Scattered Clouds
2:00 PM 91.4 °F 102.5 °F 75.2 °F 59% 29.80 in 6.2 mi West 15.0 mph - N/A   Scattered Clouds
2:30 PM 91.4 °F 102.5 °F 75.2 °F 59% 29.77 in 6.2 mi West 15.0 mph - N/A   Scattered Clouds
3:00 PM 89.6 °F 102.2 °F 77.0 °F 66% 29.77 in 6.2 mi West 11.5 mph - N/A   Scattered Clouds
3:30 PM 89.6 °F 99.8 °F 75.2 °F 62% 29.77 in 6.2 mi West 15.0 mph - N/A   Scattered Clouds
4:00 PM 91 °F - 78 °F 59% 29.71 in 6 mi WNW 5.8 mph - -   Scattered Clouds
4:00 PM 89.6 °F 102.2 °F 77.0 °F 66% 29.74 in 6.2 mi WNW 15.0 mph - N/A   Scattered Clouds
4:30 PM 89.6 °F 102.2 °F 77.0 °F 66% 29.74 in 6.2 mi WNW 15.0 mph - N/A   Scattered Clouds
5:00 PM 89.6 °F 102.2 °F 77.0 °F 66% 29.74 in 6.2 mi West 11.5 mph - N/A   Scattered Clouds
5:30 PM 87.8 °F 99.7 °F 77.0 °F 70% 29.74 in 6.2 mi West 16.1 mph - N/A   Scattered Clouds
6:00 PM 87.8 °F 99.7 °F 77.0 °F 70% 29.74 in 6.2 mi WNW 13.8 mph - N/A   Mostly Cloudy
6:30 PM 87.8 °F 99.7 °F 77.0 °F 70% 29.74 in 6.2 mi WNW 13.8 mph - N/A   Mostly Cloudy
7:00 PM 87 °F - 78 °F 68% 29.73 in 6 mi Calm Calm - -   Scattered Clouds
7:00 PM 86.0 °F 96.9 °F 77.0 °F 74% 29.77 in 6.2 mi WNW 9.2 mph - N/A   Mostly Cloudy
7:30 PM 86.0 °F 96.9 °F 77.0 °F 74% 29.77 in 6.2 mi WNW 10.4 mph - N/A   Mostly Cloudy
8:00 PM 86.0 °F 96.9 °F 77.0 °F 74% 29.80 in 6.2 mi WNW 8.1 mph - N/A   Mostly Cloudy
8:30 PM 86.0 °F 96.9 °F 77.0 °F 74% 29.83 in 5.6 mi East 8.1 mph - N/A   Mostly Cloudy
9:00 PM 82.4 °F 88.2 °F 73.4 °F 74% 29.83 in 1.9 mi ENE 9.2 mph - N/A Rain Rain
9:30 PM 80.6 °F 85.4 °F 73.4 °F 79% 29.83 in 3.1 mi ENE 10.4 mph - N/A Thunderstorm Thunderstorm
10:00 PM 81 °F - 76 °F 82% 29.81 in 5 mi West 2.3 mph - - Rain Light Rain
10:00 PM 78.8 °F - 75.2 °F 89% 29.83 in 4.3 mi Variable 2.3 mph - N/A Thunderstorm Thunderstorm
10:30 PM 78.8 °F - 75.2 °F 89% 29.83 in 4.3 mi North 3.5 mph - N/A   Mostly Cloudy
11:00 PM 80.6 °F 86.2 °F 75.2 °F 84% 29.83 in 4.3 mi ESE 6.9 mph - N/A Thunderstorm Thunderstorm
11:30 PM 80.6 °F 86.2 °F 75.2 °F 84% 29.80 in 4.3 mi ESE 4.6 mph - N/A Thunderstorm Thunderstorm